HST
1 20580U 90037B   24257.32433388  .00019351  00000-0  87854-3 0  9992
2 20580  28.4670 113.9880 0002357 296.8543  63.1808 15.19399520690700
ISS (ZARYA)
1 25544U 98067A   24258.40447241  .00032361  00000-0  59047-3 0  9990
2 25544  51.6381 233.4386 0007651 352.1543 139.4597 15.49102945472389
CXO
1 25867U 99040B   24260.41841978  .00001178  00000-0  00000+0 0  9992
2 25867  43.0906 146.4135 8793537 301.2858   0.7279  0.37805052 26064